Voltar ao catálogo

STARLINK-2111

AtivoComunicaçõesVLEO
NORAD 47390·PAYLOAD·🇺🇸 United States

Lançado Jan 20, 2021 de Cape Canaveral Space Force Station

Loading…

Próximas Passagens (próximas 24 horas)

TLE

AtualizadoSource: CelesTrak SupGP

Época: Sep 15, 2026, 02:48 UTC

1 47390C 21005AT  26258.11715278 -.00016372  00000+0 -52656-3 0  2581
2 47390  53.1578 264.7803 0001235  91.2026 292.3835 15.31704838    18

Acompanhe STARLINK-2111 em tempo real com AllMySat

Download on the App Store